sat.trackr.live / text

‹ back to catalog

STARLINK-1993

NORAD 47588 · 2021-009AS

PAYLOAD ACTIVE UNKNOWN

§ Identity

Operator
Country
US
Launch date
2021-02-04
Launch site
AFETR
Launch vehicle
Mass (kg)
RCS (m²)

Purposes: comms

External: N2YO · Heavens-Above · Gunter

§ Orbital elements

Epoch: 2026-06-03T18:14:42.164736Z

Period
88.29 min
Inclination
53.0218°
Eccentricity
0.0012482
Mean motion
16.31006729 rev/d
Perigee alt
181.6 km
Apogee alt
198.0 km
Semi-major
6,568.0 km
B*
9.5582e-4
RAAN
264.1194°
Arg perigee
307.6354°
Mean anomaly
52.3555°
Rev number
29,504

§ Raw data

STARLINK-19931 47588U 21009AS  26154.76021024  .05053959  12160-4  95582-3 0  99962 47588  53.0218 264.1194 0012482 307.6354  52.3555 16.31006729295045

JSON: /api/v1/satellites/47588 · /tle

For live sub-satellite position, see the globe view (requires WebGL).

§ Visibility from observer

Set your observer location to see the next 7 days of passes ≥ 10°. The values pass through the URL so the page stays shareable.

No JS? Fill the form by hand. The geolocation button needs JavaScript.